Corsicana, TX

12:02 PM CDT on July 26, 2017 (GMT -0500)
Campbell-Corsicana Municipal

Weather History for KCRS - July, 2008

Change the Weather History Date:

Saturday, July 5, 2008

  Actual Average (KTYR) Record (KTYR)
Temperature  
Mean Temperature 84 °F -  
Max Temperature 97 °F 90 °F 104 °F (1909)
Min Temperature 72 °F 71 °F 54 °F (1968)
Cooling Degree Days 19    
Growing Degree Days 34 (Base 50)    
Moisture  
Dew Point 65 °F    
Average Humidity 56    
Maximum Humidity 84    
Minimum Humidity 30    
Precipitation  
Precipitation 0.00 in - - ()
Sea Level Pressure  
Sea Level Pressure 29.97 in    
Wind  
Wind Speed 9 mph (SSW)    
Max Wind Speed 16 mph    
Max Gust Speed 21 mph    
Visibility 10 miles    
Events      
Averages and records for this station are not official NWS values.
T = Trace of Precipitation, MM = Missing Value Source: NWS Daily Summary

Daily Weather History Graph

Daily Weather History Graph

Search for Another Location

Airport or City:

Trip Planner

Search our weather history database for the weather conditions in past years. The results will help you decide how hot, cold, wet, or windy it might be!

Date:

Astronomy

Jul. 05, 2008 Rise Set
Actual Time 6:25 AM CDT 8:35 PM CDT
Civil Twilight 5:57 AM CDT 9:03 PM CDT
Nautical Twilight 5:22 AM CDT 9:37 PM CDT
Astronomical Twilight 4:45 AM CDT 10:14 PM CDT
Moon 9:12 AM CDT (7/5) 10:50 PM CDT (7/5)
Length of Visible Light 15h 06m
Length of Day
14h 10m
Waxing Crescent, 9% of the Moon is Illuminated
Jul 5
Waxing Crescent
Jul 9
First Quarter
Jul 18
Full
Jul 25
Last Quarter
Aug 1
New

Hourly Weather History & Observations

Time (CDT) Temp. Heat Index Dew Point Humidity Pressure Visibility Wind Dir Wind Speed Gust Speed Precip Events Conditions
12:53 AM 77.0 °F - 66.0 °F 69% 29.99 in 10.0 mi South 8.1 mph - N/A   Partly Cloudy
1:53 AM 75.0 °F - 66.0 °F 73% 29.99 in 10.0 mi South 8.1 mph - N/A   Clear
2:53 AM 73.9 °F - 66.0 °F 76% 29.99 in 10.0 mi SSW 5.8 mph - N/A   Clear
3:53 AM 72.0 °F - 66.0 °F 81% 29.98 in 10.0 mi SSW 5.8 mph - N/A   Clear
4:53 AM 72.0 °F - 66.9 °F 84% 29.99 in 10.0 mi South 8.1 mph - N/A   Clear
5:53 AM 72.0 °F - 66.9 °F 84% 29.99 in 10.0 mi South 6.9 mph - N/A   Clear
6:53 AM 72.0 °F - 66.9 °F 84% 30.01 in 10.0 mi South 6.9 mph - N/A   Clear
7:53 AM 73.9 °F - 66.9 °F 79% 30.03 in 10.0 mi South 9.2 mph - N/A   Clear
8:53 AM 79.0 °F - 68.0 °F 69% 30.04 in 10.0 mi SSW 10.4 mph - N/A   Clear
9:53 AM 82.9 °F 85.8 °F 68.0 °F 60% 30.03 in 10.0 mi SSW 9.2 mph - N/A   Clear
10:53 AM 87.1 °F 89.2 °F 66.0 °F 49% 30.01 in 10.0 mi SW 12.7 mph 17.3 mph N/A   Clear
11:53 AM 90.0 °F 91.7 °F 64.9 °F 43% 30.01 in 10.0 mi SSW 10.4 mph - N/A   Clear
12:53 PM 91.9 °F 92.9 °F 63.0 °F 38% 29.99 in 10.0 mi SSW 16.1 mph 20.7 mph N/A   Clear
1:53 PM 93.9 °F 95.2 °F 63.0 °F 36% 29.98 in 10.0 mi SSW 10.4 mph 18.4 mph N/A   Partly Cloudy
2:53 PM 95.0 °F 95.6 °F 62.1 °F 33% 29.96 in 10.0 mi South 8.1 mph 17.3 mph N/A   Clear
3:53 PM 96.1 °F 96.9 °F 62.1 °F 32% 29.94 in 10.0 mi SSW 10.4 mph 19.6 mph N/A   Partly Cloudy
4:53 PM 96.1 °F 96.0 °F 60.1 °F 30% 29.92 in 10.0 mi SW 9.2 mph - N/A   Partly Cloudy
5:53 PM 95.0 °F 95.2 °F 61.0 °F 32% 29.91 in 10.0 mi SSW 10.4 mph - N/A   Partly Cloudy
6:53 PM 93.9 °F 94.8 °F 62.1 °F 35% 29.90 in 10.0 mi South 8.1 mph - N/A   Partly Cloudy
7:53 PM 90.0 °F 90.3 °F 62.1 °F 39% 29.90 in 10.0 mi South 9.2 mph - N/A   Partly Cloudy
8:53 PM 86.0 °F 87.3 °F 64.0 °F 48% 29.91 in 10.0 mi South 11.5 mph - N/A   Clear
9:53 PM 82.9 °F 84.4 °F 64.0 °F 53% 29.93 in 10.0 mi South 8.1 mph - N/A   Partly Cloudy
10:53 PM 80.1 °F 81.9 °F 64.9 °F 60% 29.94 in 10.0 mi South 6.9 mph - N/A   Partly Cloudy
11:53 PM 79.0 °F - 66.0 °F 64% 29.95 in 10.0 mi South 8.1 mph - N/A   Clear